Terminal Aerodrome Forecast
Issued by NWS

Home | Current Version | Previous Version | Text Only | Print | Product List | Glossary On
Versions: 1 2 3 4 5 6 7 8 9 10 11 12 13 14 15 16 17 18 19 20 21 22 23 24 25 26 27 28 29 30 31 32 33 34 35 36 37 38 39 40 41 42 43 44 45 46 47 48 49 50
808
FTUS44 KHGX 122326
TAFIAH
TAF
KIAH 122326Z 1300/1406 VRB05KT P6SM FEW035
     FM130900 04004KT P6SM BKN025
     FM131200 07007KT P6SM BKN025
     FM131600 10014KT P6SM BKN025
     FM132100 12013KT P6SM BKN030
     FM140100 12007KT P6SM SCT015 BKN035=

USA.gov is the U.S. government's official web portal to all federal, state and local government web resources and services.